Flag for Kazakhstan Weather past 2 weeks in Almaty, Kazakhstan

Now
55 °F

Passing clouds.


Feels Like: 55 °F
Forecast: 35 / 61 °F
Wind: 3 mph from Northeast

Location: Almaty Airport


UV Index: 5 (Moderate)

Visibility: N/A


Pressure: 30.18 "Hg

Humidity: 26%

Dew point: 21 °F

Location of AlmatyLocation

Historic Weather in Almaty

°F

Almaty temperature yesterday

Maximum temperature yesterday: 57 °F (at 3:00 PM)
Minimum temperature yesterday: 30 °F (at 5:00 AM)
Average temperature yesterday: 44 °F

Past Weeks' High & Low Weather Summary

 TemperatureHumidityPressure
High73 °F (Apr 10, 2:00 PM)100% (Apr 5, 2:00 AM)30.54 "Hg (Apr 5, 2:00 AM)
Low25 °F (Apr 15, 4:30 AM)13% (Apr 9, 3:30 PM)29.74 "Hg (Apr 10, 1:30 PM)
Average46 °F70%30.15 "Hg
* Reported Apr 3 7:00 PM — Apr 18 7:30 PM, Almaty, Weather by CustomWeather, © 2014

Note: Actual official high and low records may vary slightly from our data, if they occured in-between our weather recording intervals... More about our weather records

Advertising

Historic Weather Conditions — Data for Previous 24 hours

 ConditionsComfort  
Time TempWeatherWind HumidityBarometerVisibility
7:30 PM
Apr 18
57 °FPassing clouds.6 mph23%30.15 "HgN/A
7:00 PM59 °FPassing clouds.6 mph18%30.15 "HgN/A
6:30 PM61 °FPassing clouds.8 mph16%30.15 "HgN/A
6:00 PM63 °FScattered clouds.8 mph19%30.15 "HgN/A
5:30 PM63 °FPassing clouds.8 mph19%30.15 "HgN/A
5:00 PM63 °FPassing clouds.6 mph25%30.15 "HgN/A
4:30 PM64 °FPassing clouds.8 mph22%30.15 "HgN/A
4:00 PM64 °FPassing clouds.6 mph24%30.15 "HgN/A
3:30 PM63 °FPassing clouds.6 mph24%30.15 "HgN/A
3:00 PM63 °FPassing clouds.6 mph22%30.15 "HgN/A
2:30 PM63 °FPassing clouds.3 mph25%30.15 "HgN/A
2:00 PM63 °FPassing clouds.8 mph27%30.18 "HgN/A
1:30 PM61 °FScattered clouds.6 mph34%30.18 "HgN/A
1:00 PM59 °FScattered clouds.6 mph29%30.18 "HgN/A
12:30 PM59 °FScattered clouds.6 mph29%30.18 "HgN/A
12:00 PM57 °FPassing clouds.3 mph29%30.21 "HgN/A
11:30 AM57 °FPassing clouds.6 mph31%30.21 "HgN/A
11:00 AM55 °FPassing clouds.6 mph38%30.21 "HgN/A
10:30 AM54 °FPassing clouds.6 mph35%30.21 "HgN/A
10:00 AM54 °FPassing clouds.3 mph38%30.21 "HgN/A
9:30 AM50 °FPassing clouds.3 mph43%30.21 "HgN/A
9:00 AM48 °FScattered clouds.3 mph46%30.21 "HgN/A
8:30 AM45 °FScattered clouds.3 mph57%30.21 "HgN/A
8:00 AM43 °FScattered clouds.3 mph61%30.21 "HgN/A
7:30 AM41 °FScattered clouds.3 mph70%30.21 "HgN/A
7:00 AM37 °FBroken clouds.6 mph75%30.18 "HgN/A
6:30 AM37 °FBroken clouds.8 mph75%30.18 "HgN/A
6:00 AM37 °FBroken clouds.3 mph81%30.18 "HgN/A
5:30 AM37 °FBroken clouds.3 mph81%30.15 "HgN/A
5:00 AM37 °FPartly cloudy.3 mph81%30.15 "HgN/A
4:30 AM37 °FPartly cloudy.3 mph81%30.15 "HgN/A
4:00 AM37 °FPartly cloudy.3 mph75%30.15 "HgN/A
3:30 AM37 °FPassing clouds.6 mph81%30.15 "HgN/A
3:00 AM36 °FPassing clouds.6 mph81%30.15 "HgN/A
2:30 AM37 °FPassing clouds.3 mph75%30.15 "HgN/A
2:00 AM37 °FFog.1 mph75%30.18 "Hg2 mi
1:30 AM37 °FFog.1 mph81%30.18 "Hg2 mi
1:00 AM39 °FFog.3 mph75%30.18 "Hg2 mi
12:30 AM39 °FFog.6 mph75%30.18 "Hg2 mi
12:00 AM41 °FPassing clouds.3 mph70%30.18 "Hg1 mi
11:00 PM
Apr 17
41 °FPassing clouds.3 mph66%30.18 "Hg2 mi
10:30 PM45 °FPassing clouds.3 mph57%30.18 "Hg2 mi
10:00 PM45 °FPassing clouds.3 mph57%30.18 "Hg1 mi
9:30 PM46 °FPassing clouds.1 mph53%30.18 "Hg1 mi
9:00 PM46 °FPassing clouds.6 mph53%30.18 "Hg1 mi
8:30 PM48 °FPassing clouds.3 mph54%30.15 "Hg2 mi
8:00 PM50 °FPassing clouds.1 mph47%30.15 "HgN/A
Weather by CustomWeather, © 2014

See weather overview